Погода в Шальском

Россия / Республика Карелия     61°48′13″N   35°59′13″E
темп.,
°C
ветер,
м/с
пор.,
м/с
влажн.,
%
обл.,
%
осадки,
мм/ч
давл.,
гПа
погр.,
м
26 февраля, пт
пт2600:00−5ююв5894100 0.1 1005201
03:00−2ююв4796100 0.1 1003189
06:00−2юв5897100 1.3 999262
09:00−2вюв4797100 4.3 995283
12:00−3в5796100 3.4 994360
15:00−4св4695100 5.0 996404
18:00−7св3494100 0.1 99891
21:00−9всв1293100 0.1 100233
27 февраля, сб
сб2700:00−11в129386 0.0 100321
03:00−10вюв119585 0.1 100521
06:00−9ююв129699 0.1 100627
09:00−8ююз119699 0.4 100833
12:00−4зюз129693 0.3 1010130
15:000ссз599693 0.3 1012481
18:00−1с488996 0.0 1013396
21:00−2ссз489498 0.1 1015361
28 февраля, вс
вс2800:00−3ссз4791100 0.0 1015281
03:00−3зсз249398 0.1 1015100
06:00−3з3593100 0.0 1014132
09:00−4юз2393100 0.1 101470
12:00−3ююз349498 0.0 1013235
15:00−3ю349584 0.0 1014195
18:00−4ююз349792 0.1 101467
21:00−2юз369892 0.4 1015164
1 марта, пн
пн100:00−1юз3598100 0.3 1015149
03:00−1з4796100 0.4 1015227
06:00−3юз479786 0.0 1013148
09:00−1юз599590 0.1 1011379
12:00+1зюз51297100 0.1 1009403
15:00+1з71497100 0.8 1007456
18:00+1зсз71595100 0.5 1006604
21:00+1зсз61290100 0.6 1006425
2 марта, вт
вт200:000зсз6129895 0.1 1006551
03:00+1зсз6138898 0.4 1005599
06:00−2зсз6129180 0.0 1005356
09:00−2зсз6139186 0.0 1005527
12:00−2сз5108996 0.0 1006549
15:000сз6109398 0.2 1007704
18:00−1сз498996 0.1 1008389
21:00−3сз479693 0.2 1010151